Location: Bratsk-Energetik
(56.3300°N, 101.7600°E)
Time: 21:58:26
(UTC+08:00)

ISS - Pass Details

Date: 14 May 2021
Orbit: 417 x 422 km, 51.6° (Epoch: 13 June)

Event Time Altitude Azimuth Distance (km) Brightness Sun altitude
Rises 22:38:17 0° 201° (SSW) 2,356 -0.3 -8.5°
Enters shadow 22:40:29 - 181° (S) 1,693 -1.2 -8.6°
Exits shadow 22:46:41 - 93° (E) 2,181 -0.5 -9.1°
Sets 22:47:14 0° 89° (E) 2,369 -0.3 -9.2°
